FW3162 Easton MD US current weather conditions

sailwx.info

Wind from 145 at 2 knots gusting 10

Air temperature 20.6° C
Dewpoint 12.3° C

Last reported at 2020-Sep-30 18:00 UTC.
Time now 2020-Sep-30 18:34 UTC

Location: N 38°47' W 076°03'.
View on Google Maps.

See reports from other nearby stations

  
Tides and Currents Weather Stations Pressure Air Temp Water Temp Dewpoint Dewpoint Depression Visibility Wind Speed Wind Dir Waves Ship Positions
date/time (UTC)wind fromknots sea level pressurealtimeterstation pressurevisibilityair tempwater tempwave heightnotes
2020-Sep-30 18:00 145 2 gusting 10 20.6
2020-Sep-30 17:55 171 3 gusting 8 20.6
2020-Sep-30 17:45 172 2 gusting 9 20.6
2020-Sep-30 17:35 250 3 gusting 8 20.6
2020-Sep-30 17:30 151 2 gusting 10 20.6
2020-Sep-30 17:25 258 3 gusting 10 20.0
2020-Sep-30 17:20 307 2 gusting 6 20.6
2020-Sep-30 17:15 304 2 gusting 9 20.0
2020-Sep-30 17:10 186 2 gusting 10 20.0
2020-Sep-30 17:05 207 4 gusting 10 20.0
2020-Sep-30 16:56 219 2 gusting 8 20.0
2020-Sep-30 16:51 231 4 gusting 8 19.4
2020-Sep-30 16:46 295 2 gusting 9 20.0
2020-Sep-30 16:41 179 2 gusting 9 19.4
2020-Sep-30 16:36 319 5 gusting 9 20.0
2020-Sep-30 16:32 206 2 gusting 6 20.0
2020-Sep-30 16:26 077 1 gusting 7 20.0
2020-Sep-30 16:20 320 2 gusting 10 19.4
2020-Sep-30 16:16 298 3 gusting 10 19.4
2020-Sep-30 16:11 239 2 gusting 8 19.4
2020-Sep-30 16:05 169 3 gusting 8 19.4
2020-Sep-30 16:01 191 4 gusting 8 19.4
2020-Sep-30 15:55 083 1 gusting 8 19.4
2020-Sep-30 15:51 226 2 gusting 8 18.9
2020-Sep-30 15:47 205 4 gusting 8 18.9
2020-Sep-30 15:40 232 2 gusting 9 18.9
2020-Sep-30 15:35 110 3 gusting 9 18.9
2020-Sep-30 15:31 304 1 gusting 6 18.9
2020-Sep-30 15:25 094 2 gusting 9 18.3
2020-Sep-30 15:21 175 4 gusting 9 18.9
2020-Sep-30 15:16 174 3 gusting 9 18.9
2020-Sep-30 15:10 286 3 gusting 9 18.9
2020-Sep-30 15:05 176 3 gusting 9 18.9
2020-Sep-30 15:02 293 2 gusting 9 18.3
2020-Sep-30 14:55 091 2 gusting 7 18.3
2020-Sep-30 14:50 256 3 gusting 7 18.3
2020-Sep-30 14:46 226 3 gusting 8 18.3
2020-Sep-30 14:41 305 2 gusting 8 18.3
2020-Sep-30 14:35 190 4 gusting 8 18.3
2020-Sep-30 14:31 041 2 gusting 7 18.3
2020-Sep-30 14:25 290 2 gusting 8 18.3
2020-Sep-30 14:20 183 2 gusting 8 17.8
2020-Sep-30 14:16 247 1 gusting 8 17.8
2020-Sep-30 14:10 201 2 gusting 15 17.8
2020-Sep-30 14:05 198 4 gusting 15 17.8
2020-Sep-30 14:01 271 3 gusting 7 17.8
2020-Sep-30 13:55 250 1 gusting 7 17.8
2020-Sep-30 13:50 207 2 gusting 7 17.8
2020-Sep-30 13:46 307 1 gusting 7 17.8
2020-Sep-30 13:40 268 0 gusting 7 17.2
2020-Sep-30 13:36 191 2 gusting 5 17.2
2020-Sep-30 13:34 226 1 gusting 6 17.2
2020-Sep-30 13:25 340 2 gusting 9 16.7
2020-Sep-30 13:20 155 1 gusting 9 16.7
2020-Sep-30 13:16 323 1 gusting 6 16.7
2020-Sep-30 13:10 197 1 gusting 5 16.7
2020-Sep-30 13:05 305 1 gusting 5 16.7
2020-Sep-30 13:01 265 0 gusting 5 16.7
2020-Sep-30 12:55 188 0 gusting 4 16.1
2020-Sep-30 12:50 249 1 gusting 5 16.1
2020-Sep-30 12:45 277 1 gusting 5 15.6
2020-Sep-30 12:40 257 0 gusting 4 15.6
2020-Sep-30 12:35 262 0 gusting 3 15.6
2020-Sep-30 12:30 261 0 gusting 4 15.0
2020-Sep-30 12:25 223 0 gusting 4 14.4
2020-Sep-30 12:20 196 0 gusting 4 14.4
2020-Sep-30 12:15 196 1 gusting 5 14.4
2020-Sep-30 12:10 069 1 gusting 6 14.4
2020-Sep-30 12:05 227 0 gusting 6 15.0
2020-Sep-30 12:01 219 1 gusting 5 15.0
2020-Sep-30 11:55 211 15.0
2020-Sep-30 11:50 113 1 gusting 5 14.4
2020-Sep-30 11:45 179 1 gusting 6 14.4
2020-Sep-30 11:40 194 1 gusting 7 14.4
2020-Sep-30 11:35 229 2 gusting 7 13.9
2020-Sep-30 11:25 259 0 gusting 5 13.9
2020-Sep-30 11:20 205 0 gusting 5 13.3
2020-Sep-30 11:10 282 1 gusting 5 13.3
2020-Sep-30 11:05 219 1 gusting 6 13.3
2020-Sep-30 10:55 220 0 gusting 5 13.3
2020-Sep-30 10:50 132 0 gusting 5 13.3
2020-Sep-30 10:45 234 0 gusting 5 13.3
2020-Sep-30 10:40 204 1 gusting 5 13.3
2020-Sep-30 10:35 299 0 gusting 7 13.3
2020-Sep-30 10:26 242 2 gusting 6 13.3
2020-Sep-30 10:21 282 0 gusting 5 13.3
2020-Sep-30 10:17 243 1 gusting 5 13.3
2020-Sep-30 10:11 210 0 gusting 5 13.3
2020-Sep-30 10:06 243 0 gusting 4 13.3
2020-Sep-30 10:01 200 0 gusting 6 13.3
2020-Sep-30 09:56 204 1 gusting 6 13.3
2020-Sep-30 09:50 281 0 gusting 6 13.3
2020-Sep-30 09:46 200 1 gusting 7 13.3
2020-Sep-30 09:40 163 1 gusting 7 13.3
2020-Sep-30 09:36 214 0 gusting 6 13.3
2020-Sep-30 09:31 226 0 gusting 9 13.9
2020-Sep-30 09:26 215 2 gusting 9 13.9
2020-Sep-30 09:20 136 1 gusting 8 13.9
2020-Sep-30 09:17 156 2 gusting 7 13.9
2020-Sep-30 09:10 273 2 gusting 7 13.9
2020-Sep-30 09:05 279 3 gusting 9 13.9
2020-Sep-30 09:01 182 2 gusting 9 13.9
2020-Sep-30 08:55 212 1 gusting 7 13.9
2020-Sep-30 08:50 314 1 gusting 6 13.9
2020-Sep-30 08:46 165 1 gusting 9 13.9
2020-Sep-30 08:41 249 2 gusting 14 13.9
2020-Sep-30 08:36 309 3 gusting 14 13.9
2020-Sep-30 08:30 061 4 gusting 9 14.4
2020-Sep-30 08:25 279 1 gusting 8 14.4
2020-Sep-30 08:20 205 3 gusting 8 14.4
2020-Sep-30 08:16 238 1 gusting 6 14.4
2020-Sep-30 08:10 173 0 gusting 6 14.4
2020-Sep-30 08:05 155 0 gusting 6 14.4
2020-Sep-30 08:02 270 0 gusting 6 14.4
2020-Sep-30 07:55 178 1 gusting 7 14.4
2020-Sep-30 07:50 256 2 gusting 7 14.4
2020-Sep-30 07:46 217 2 gusting 6 14.4
2020-Sep-30 07:40 233 1 gusting 5 14.4
2020-Sep-30 07:35 231 14.4
2020-Sep-30 07:31 234 14.4
2020-Sep-30 07:25 181 14.4
2020-Sep-30 07:20 114 14.4
2020-Sep-30 07:16 115 14.4
2020-Sep-30 07:10 115 14.4
2020-Sep-30 07:05 115 14.4
2020-Sep-30 07:00 115 14.4
2020-Sep-30 06:55 115 14.4
2020-Sep-30 06:50 114 14.4
2020-Sep-30 06:45 023 14.4
2020-Sep-30 06:40 096 14.4
2020-Sep-30 06:35 096 14.4
2020-Sep-30 06:31 359 14.4
2020-Sep-30 06:25 067 14.4
2020-Sep-30 06:20 075 14.4
2020-Sep-30 06:16 022 14.4
2020-Sep-30 06:10 041 14.4
2020-Sep-30 06:05 209 14.4
2020-Sep-30 06:00 094 14.4
2020-Sep-30 05:55 082 14.4
2020-Sep-30 05:50 053 14.4
2020-Sep-30 05:47 032 0 gusting 5 14.4
2020-Sep-30 05:40 074 1 gusting 5 14.4
2020-Sep-30 05:35 331 0 gusting 4 14.4
2020-Sep-30 05:31 048 14.4
2020-Sep-30 05:25 066 1 gusting 6 14.4
2020-Sep-30 05:20 293 1 gusting 8 14.4
2020-Sep-30 05:15 145 1 gusting 8 14.4
2020-Sep-30 05:10 249 2 gusting 8 14.4
2020-Sep-30 05:05 293 2 gusting 6 14.4
2020-Sep-30 05:01 243 1 gusting 10 14.4
2020-Sep-30 04:55 309 1 gusting 10 14.4
2020-Sep-30 04:50 115 0 gusting 10 14.4
2020-Sep-30 04:45 088 1 gusting 15 14.4
2020-Sep-30 04:40 268 3 gusting 15 15.0
2020-Sep-30 04:35 020 1 gusting 10 15.0
2020-Sep-30 04:31 259 4 gusting 10 15.0
2020-Sep-30 04:25 010 1 gusting 9 15.0
2020-Sep-30 04:15 334 2 gusting 10 15.6
2020-Sep-30 04:10 289 1 gusting 11 15.6
2020-Sep-30 04:05 098 3 gusting 13 15.6
2020-Sep-30 04:00 214 3 gusting 13 15.6
2020-Sep-30 03:55 005 1 gusting 13 16.1
2020-Sep-30 03:50 289 1 gusting 9 16.1
2020-Sep-30 03:40 295 0 gusting 10 16.1
2020-Sep-30 03:31 302 1 gusting 10 16.7
2020-Sep-30 03:26 269 0 gusting 8 17.2
2020-Sep-30 03:21 286 1 gusting 6 17.2
2020-Sep-30 03:17 199 0 gusting 6 17.2
2020-Sep-30 03:11 304 1 gusting 7 17.2
2020-Sep-30 03:05 249 2 gusting 7 17.2
2020-Sep-30 03:01 303 1 gusting 7 17.8
2020-Sep-30 02:55 101 0 gusting 6 17.8
2020-Sep-30 02:50 139 1 gusting 6 17.8
2020-Sep-30 02:46 160 1 gusting 6 18.3
2020-Sep-30 02:40 300 0 gusting 6 18.9
2020-Sep-30 02:35 301 0 gusting 6 19.4
2020-Sep-30 02:31 297 1 gusting 5 20.0
2020-Sep-30 02:25 280 0 gusting 7 20.6
2020-Sep-30 02:20 216 1 gusting 7 21.1
2020-Sep-30 02:16 232 0 gusting 7 22.2
2020-Sep-30 02:10 213 0 gusting 6 22.2
2020-Sep-30 02:05 012 1 gusting 6 22.2
2020-Sep-30 02:02 192 0 gusting 6 22.2
2020-Sep-30 01:55 257 0 gusting 9 22.2
2020-Sep-30 01:51 165 1 gusting 9 22.2
2020-Sep-30 01:46 176 0 gusting 8 22.2
2020-Sep-30 01:40 195 3 gusting 8 22.2
2020-Sep-30 01:36 326 22.2
2020-Sep-30 01:30 251 0 gusting 6 22.2
2020-Sep-30 01:25 127 1 gusting 6 22.2
2020-Sep-30 01:20 094 0 gusting 4 22.2
2020-Sep-30 01:16 094 1 gusting 4 22.2
2020-Sep-30 01:10 169 0 gusting 4 22.2
2020-Sep-30 01:05 206 0 gusting 4 22.2
2020-Sep-30 01:01 089 0 gusting 3 22.2
2020-Sep-30 00:55 242 22.2
2020-Sep-30 00:50 155 22.2
2020-Sep-30 00:45 156 0 gusting 4 22.2
2020-Sep-30 00:40 091 0 gusting 5 22.2
2020-Sep-30 00:36 155 0 gusting 5 22.2
2020-Sep-30 00:31 023 0 gusting 4 22.2
2020-Sep-30 00:25 208 22.2
2020-Sep-30 00:20 260 22.2
2020-Sep-30 00:15 274 22.2
2020-Sep-30 00:10 189 22.2
2020-Sep-30 00:05 293 22.2
2020-Sep-30 00:01 056 22.2
2020-Sep-29 23:55 108 22.2
2020-Sep-29 23:50 075 22.2
2020-Sep-29 23:45 227 0 gusting 2 22.2
2020-Sep-29 23:40 130 22.2
2020-Sep-29 23:35 023 0 gusting 3 22.2
2020-Sep-29 23:30 189 22.2
2020-Sep-29 23:25 236 22.2
2020-Sep-29 23:20 093 22.2
2020-Sep-29 23:15 114 22.2
2020-Sep-29 23:10 254 22.2
2020-Sep-29 23:05 047 22.2
2020-Sep-29 23:00 150 22.2
2020-Sep-29 22:55 101 22.2
2020-Sep-29 22:50 231 22.2
2020-Sep-29 22:40 233 22.8
2020-Sep-29 22:30 172 22.8
2020-Sep-29 22:25 207 22.8
2020-Sep-29 22:15 082 22.8
2020-Sep-29 22:10 321 22.8
2020-Sep-29 22:05 141 23.3
2020-Sep-29 21:55 171 23.3
2020-Sep-29 21:50 107 23.3
2020-Sep-29 21:40 164 23.3
2020-Sep-29 21:35 088 23.3
2020-Sep-29 21:25 224 23.3
2020-Sep-29 21:15 158 23.3
2020-Sep-29 21:10 143 1 gusting 5 23.9
2020-Sep-29 21:05 253 23.9
2020-Sep-29 20:55 210 0 gusting 3 23.9
2020-Sep-29 20:45 204 0 gusting 6 23.9
2020-Sep-29 20:40 141 23.9
2020-Sep-29 20:35 136 1 gusting 5 23.9
2020-Sep-29 20:25 246 0 gusting 6 23.9
2020-Sep-29 20:20 224 0 gusting 6 23.3
2020-Sep-29 20:06 213 0 gusting 6 23.3
2020-Sep-29 20:02 218 0 gusting 4 23.9
2020-Sep-29 19:55 238 0 gusting 4 23.3
2020-Sep-29 19:51 236 0 gusting 7 23.3
2020-Sep-29 19:47 215 1 gusting 7 23.3
2020-Sep-29 19:40 116 0 gusting 4 23.9
2020-Sep-29 19:36 101 23.9
2020-Sep-29 19:32 168 0 gusting 2 23.9
2020-Sep-29 19:26 224 0 gusting 2 23.3
2020-Sep-29 19:20 097 23.3
2020-Sep-29 19:17 224 0 gusting 5 23.3
2020-Sep-29 19:11 236 2 gusting 5 23.9
2020-Sep-29 19:05 230 0 gusting 5 23.9
2020-Sep-29 19:02 237 0 gusting 5 23.9
2020-Sep-29 18:55 195 23.3
2020-Sep-29 18:51 240 0 gusting 3 23.3
2020-Sep-29 18:46 147 23.3
2020-Sep-29 18:40 162 22.8
2020-Sep-29 18:35 200 22.8
2020-Sep-29 18:31 240 0 gusting 3 22.8
2020-Sep-29 18:25 236 22.8
2020-Sep-29 18:20 221 0 gusting 3 22.8
2020-Sep-29 18:17 171 0 gusting 3 22.8
2020-Sep-29 18:10 224 22.8
2020-Sep-29 18:05 221 0 gusting 3 22.2
2020-Sep-29 18:01 205 0 gusting 2 22.2
2020-Sep-29 17:55 132 22.2
2020-Sep-29 17:50 169 22.2
2020-Sep-29 17:46 176 22.2
2020-Sep-29 17:40 218 22.2
2020-Sep-29 17:35 136 22.2
2020-Sep-29 17:31 245 22.8
2020-Sep-29 17:25 089 0 gusting 4 22.8
2020-Sep-29 17:20 129 0 gusting 4 22.8
2020-Sep-29 17:15 205 23.3
2020-Sep-29 17:10 221 23.3
2020-Sep-29 17:05 155 23.9
2020-Sep-29 17:01 149 1 gusting 5 23.9
2020-Sep-29 16:55 160 1 gusting 5 23.9
2020-Sep-29 16:50 221 1 gusting 4 24.4
2020-Sep-29 16:46 139 24.4
2020-Sep-29 16:40 172 1 gusting 4 24.4
2020-Sep-29 16:35 171 1 gusting 4 24.4
2020-Sep-29 16:25 154 3 gusting 9 25.0
2020-Sep-29 16:15 207 2 gusting 8 25.0
2020-Sep-29 16:10 252 3 gusting 9 25.0
2020-Sep-29 16:05 205 2 gusting 9 25.0
2020-Sep-29 15:55 263 1 gusting 6 24.4
2020-Sep-29 15:50 232 0 gusting 5 24.4
2020-Sep-29 15:40 131 0 gusting 6 24.4
2020-Sep-29 15:35 086 0 gusting 6 24.4
2020-Sep-29 15:30 184 0 gusting 5 24.4
2020-Sep-29 15:25 265 2 gusting 9 24.4
2020-Sep-29 15:20 229 3 gusting 9 24.4
2020-Sep-29 15:10 246 1 gusting 8 24.4
2020-Sep-29 15:05 197 2 gusting 8 24.4
2020-Sep-29 14:55 198 2 gusting 8 24.4
2020-Sep-29 14:48 171 1 gusting 6 23.9
2020-Sep-29 14:41 228 2 gusting 6 23.9
2020-Sep-29 14:36 232 2 gusting 6 23.9
2020-Sep-29 14:32 150 0 gusting 7 23.9
2020-Sep-29 14:25 268 3 gusting 7 23.9
2020-Sep-29 14:20 188 0 gusting 6 23.3
2020-Sep-29 14:17 219 1 gusting 5 23.3
2020-Sep-29 14:10 219 0 gusting 9 23.3
2020-Sep-29 14:05 229 2 gusting 9 22.8
2020-Sep-29 14:02 211 1 gusting 10 22.8
2020-Sep-29 13:55 229 2 gusting 10 23.3
2020-Sep-29 13:51 154 4 gusting 8 22.8
2020-Sep-29 13:46 198 1 gusting 3 22.8
2020-Sep-29 13:40 223 0 gusting 7 22.8
2020-Sep-29 13:35 207 1 gusting 7 22.2
2020-Sep-29 13:31 150 0 gusting 4 22.2
2020-Sep-29 13:25 229 1 gusting 5 21.7
2020-Sep-29 13:20 231 0 gusting 4 21.7
2020-Sep-29 13:17 147 21.7
2020-Sep-29 13:10 195 1 gusting 4 21.7
2020-Sep-29 13:06 171 0 gusting 4 21.7
2020-Sep-29 13:01 253 2 gusting 4 21.7
2020-Sep-29 12:55 210 0 gusting 4 21.7
2020-Sep-29 12:50 155 0 gusting 5 21.7
2020-Sep-29 12:46 194 1 gusting 5 21.7
2020-Sep-29 12:40 184 0 gusting 4 21.7
2020-Sep-29 12:35 229 21.7
2020-Sep-29 12:31 253 0 gusting 5 21.7
2020-Sep-29 12:25 233 1 gusting 5 21.7
2020-Sep-29 12:20 154 0 gusting 3 21.1
2020-Sep-29 12:16 243 0 gusting 6 21.1
2020-Sep-29 12:10 216 0 gusting 6 21.1
2020-Sep-29 12:05 138 0 gusting 4 21.1
2020-Sep-29 12:01 247 0 gusting 4 21.1
2020-Sep-29 11:55 217 0 gusting 4 21.1
2020-Sep-29 11:50 158 21.1
2020-Sep-29 11:46 200 0 gusting 5 21.1
2020-Sep-29 11:40 174 1 gusting 4 21.1
2020-Sep-29 11:35 151 21.1
2020-Sep-29 11:30 208 0 gusting 3 21.1
2020-Sep-29 11:25 229 0 gusting 6 21.1
2020-Sep-29 11:21 236 1 gusting 6 21.1
2020-Sep-29 11:16 238 21.1
2020-Sep-29 11:11 242 0 gusting 2 21.1
2020-Sep-29 11:05 143 21.1
2020-Sep-29 11:01 229 21.1
2020-Sep-29 10:55 152 21.1
2020-Sep-29 10:50 192 21.1
2020-Sep-29 10:46 277 21.1
2020-Sep-29 10:40 204 21.1
2020-Sep-29 10:35 127 21.1
2020-Sep-29 10:31 226 21.1
2020-Sep-29 10:25 230 21.1
2020-Sep-29 10:20 137 21.1
2020-Sep-29 10:16 098 21.1
2020-Sep-29 10:10 094 21.1
2020-Sep-29 10:05 183 21.1
2020-Sep-29 10:00 212 21.1
2020-Sep-29 09:55 108 21.1
2020-Sep-29 09:50 208 21.1
2020-Sep-29 09:46 222 21.1
2020-Sep-29 09:40 168 21.1
2020-Sep-29 09:35 200 21.1
2020-Sep-29 09:31 153 21.1
2020-Sep-29 09:25 156 21.1
2020-Sep-29 09:16 183 21.1
2020-Sep-29 09:10 138 21.1
2020-Sep-29 09:05 196 21.1
2020-Sep-29 09:02 213 21.1
2020-Sep-29 08:55 217 21.1
2020-Sep-29 08:50 146 21.1
2020-Sep-29 08:46 202 21.1
2020-Sep-29 08:40 211 0 gusting 5 21.1
2020-Sep-29 08:35 212 21.1
2020-Sep-29 08:31 202 0 gusting 2 21.1
2020-Sep-29 08:25 167 20.6
2020-Sep-29 08:20 210 20.6
2020-Sep-29 08:16 208 20.6
2020-Sep-29 08:10 264 20.6
2020-Sep-29 08:05 221 20.6
2020-Sep-29 08:00 183 20.6
2020-Sep-29 07:55 169 20.6
2020-Sep-29 07:50 246 20.6
2020-Sep-29 07:46 220 20.6
2020-Sep-29 07:40 212 20.6
2020-Sep-29 07:35 219 20.6
2020-Sep-29 07:31 245 20.6
2020-Sep-29 07:25 212 20.6
2020-Sep-29 07:20 211 0 gusting 3 20.6
2020-Sep-29 07:15 170 20.6
2020-Sep-29 07:10 240 0 gusting 3 20.6
2020-Sep-29 07:05 245 0 gusting 3 20.6
2020-Sep-29 07:01 233 0 gusting 4 20.6
2020-Sep-29 06:55 117 20.6
2020-Sep-29 06:50 210 20.6
2020-Sep-29 06:46 233 20.6
2020-Sep-29 06:40 231 20.6
2020-Sep-29 06:35 205 0 gusting 2 20.6
2020-Sep-29 06:30 245 0 gusting 3 20.6
2020-Sep-29 06:25 113 0 gusting 3 20.6
2020-Sep-29 06:20 158 0 gusting 4 20.6
2020-Sep-29 06:15 229 0 gusting 4 20.6
2020-Sep-29 06:10 204 20.6
2020-Sep-29 06:05 191 0 gusting 3 20.6
2020-Sep-29 06:00 093 20.6
2020-Sep-29 05:55 211 1 gusting 4 20.6
2020-Sep-29 05:46 161 1 gusting 4 20.6
2020-Sep-29 05:40 220 0 gusting 6 20.6
2020-Sep-29 05:35 221 1 gusting 6 20.6
2020-Sep-29 05:30 226 0 gusting 3 20.6
2020-Sep-29 05:25 111 0 gusting 5 20.6
2020-Sep-29 05:20 306 0 gusting 5 20.6
2020-Sep-29 05:10 217 0 gusting 5 20.6
2020-Sep-29 05:05 186 1 gusting 5 20.6
2020-Sep-29 05:00 170 0 gusting 4 20.6
2020-Sep-29 04:55 245 20.6
2020-Sep-29 04:50 105 0 gusting 5 20.6
2020-Sep-29 04:40 245 20.6
2020-Sep-29 04:35 182 0 gusting 4 20.6
2020-Sep-29 04:25 222 0 gusting 4 20.6
2020-Sep-29 04:15 213 0 gusting 6 20.6
2020-Sep-29 04:10 207 1 gusting 6 20.6
2020-Sep-29 04:05 086 1 gusting 4 20.0
2020-Sep-29 03:55 221 1 gusting 4 20.0
2020-Sep-29 03:50 181 1 gusting 4 20.0
2020-Sep-29 03:45 262 20.0
2020-Sep-29 03:35 266 20.0
2020-Sep-29 03:30 208 20.0
2020-Sep-29 03:25 107 20.0
2020-Sep-29 03:20 156 19.4
2020-Sep-29 03:10 226 20.0
2020-Sep-29 03:05 302 20.0
2020-Sep-29 02:55 093 20.0
2020-Sep-29 02:50 219 0 gusting 4 20.0
2020-Sep-29 02:40 155 20.0
2020-Sep-29 02:30 155 20.0
2020-Sep-29 02:25 197 20.0
2020-Sep-29 02:15 235 20.0
2020-Sep-29 02:10 125 20.6
2020-Sep-29 02:05 124 20.6
2020-Sep-29 01:55 096 20.6
2020-Sep-29 01:45 219 20.6
2020-Sep-29 01:40 136 20.6
2020-Sep-29 01:35 252 0 gusting 5 20.6
2020-Sep-29 01:25 217 21.1
2020-Sep-29 01:20 122 21.1
2020-Sep-29 01:15 140 21.1
2020-Sep-29 01:10 066 0 gusting 3 21.1
2020-Sep-29 01:05 185 21.1
2020-Sep-29 00:56 164 0 gusting 5 21.7
2020-Sep-29 00:51 247 21.7
2020-Sep-29 00:47 210 1 gusting 5 21.7
2020-Sep-29 00:41 231 21.7
2020-Sep-29 00:36 155 0 gusting 7 21.7
2020-Sep-29 00:32 245 1 gusting 7 21.7
2020-Sep-29 00:26 253 0 gusting 5 21.7
2020-Sep-29 00:20 035 0 gusting 5 21.7
2020-Sep-29 00:17 215 0 gusting 5 21.7
2020-Sep-29 00:11 105 0 gusting 5 22.2
2020-Sep-29 00:05 227 0 gusting 5 22.2
2020-Sep-29 00:01 232 22.2
2020-Sep-28 23:55 089 22.2
2020-Sep-28 23:50 152 0 gusting 3 22.2
2020-Sep-28 23:47 179 22.2
2020-Sep-28 23:40 212 22.2
2020-Sep-28 23:35 242 22.8
2020-Sep-28 23:32 244 0 gusting 6 22.8
2020-Sep-28 23:25 114 1 gusting 6 22.8
2020-Sep-28 23:20 174 22.8
2020-Sep-28 23:18 150 0 gusting 3 22.8
2020-Sep-28 23:11 146 22.8
2020-Sep-28 23:06 340 0 gusting 4 23.3
2020-Sep-28 23:02 212 0 gusting 5 23.3
2020-Sep-28 22:55 248 1 gusting 5 23.3
2020-Sep-28 22:51 237 0 gusting 4 23.3
2020-Sep-28 22:46 248 0 gusting 6 23.3
2020-Sep-28 22:40 278 0 gusting 6 23.9
2020-Sep-28 22:35 169 23.9
2020-Sep-28 22:31 099 0 gusting 5 23.9
2020-Sep-28 22:25 200 0 gusting 6 24.4
2020-Sep-28 22:20 171 0 gusting 11 24.4
2020-Sep-28 22:16 155 2 gusting 11 24.4
2020-Sep-28 22:10 108 3 gusting 8 24.4
2020-Sep-28 22:05 165 4 gusting 7 25.0
2020-Sep-28 22:01 172 0 gusting 7 25.0
2020-Sep-28 21:56 237 2 gusting 10 25.0
2020-Sep-28 21:50 214 25.0
2020-Sep-28 21:46 188 1 gusting 6 25.6
2020-Sep-28 21:40 120 2 gusting 7 25.6
2020-Sep-28 21:35 143 1 gusting 7 25.6
2020-Sep-28 21:31 168 2 gusting 8 26.1
2020-Sep-28 21:25 247 2 gusting 11 26.1
2020-Sep-28 21:20 189 1 gusting 11 26.1
2020-Sep-28 21:16 238 2 gusting 7 26.7
2020-Sep-28 21:10 186 0 gusting 6 26.7
2020-Sep-28 21:06 166 1 gusting 11 26.7
2020-Sep-28 21:02 164 5 gusting 11 26.7
2020-Sep-28 20:55 229 3 gusting 8 26.7
2020-Sep-28 20:50 147 1 gusting 6 26.7
2020-Sep-28 20:46 218 2 gusting 9 26.7
2020-Sep-28 20:40 144 2 gusting 9 26.7
2020-Sep-28 20:36 226 2 gusting 6 27.2
2020-Sep-28 20:31 181 2 gusting 6 27.2
2020-Sep-28 20:25 211 2 gusting 6 27.2
2020-Sep-28 20:20 083 1 gusting 6 27.2
2020-Sep-28 20:16 205 1 gusting 6 27.2
2020-Sep-28 20:10 245 1 gusting 6 27.2
2020-Sep-28 20:05 204 2 gusting 8 27.2
2020-Sep-28 20:00 175 2 gusting 8 27.2
2020-Sep-28 19:55 280 2 gusting 9 27.2
2020-Sep-28 19:50 142 2 gusting 9 27.2
2020-Sep-28 19:45 219 2 gusting 10 27.2
2020-Sep-28 19:40 176 2 gusting 11 26.7
2020-Sep-28 19:35 236 1 gusting 11 27.2
2020-Sep-28 19:25 136 1 gusting 5 27.2
2020-Sep-28 19:20 132 1 gusting 6 26.7
2020-Sep-28 19:15 219 2 gusting 6 26.7
2020-Sep-28 19:10 139 2 gusting 8 26.7
2020-Sep-28 19:05 032 1 gusting 7 26.7
2020-Sep-28 19:00 217 2 gusting 5 26.7
2020-Sep-28 18:55 132 1 gusting 4 26.7
2020-Sep-28 18:50 136 1 gusting 7 26.1
2020-Sep-28 18:45 064 3 gusting 7 26.1
2020-Sep-28 18:40 222 2 gusting 6 26.1
2020-Sep-28 18:32 189 2 gusting 7 26.7
2020-Sep-28 18:26 226 2 gusting 7 26.7
2020-Sep-28 18:21 153 1 gusting 6 26.7
2020-Sep-28 18:18 203 1 gusting 6 26.7
2020-Sep-28 18:11 136 2 gusting 6 26.1
2020-Sep-28 18:06 173 3 gusting 8 26.1
2020-Sep-28 18:02 219 3 gusting 8 26.7